Historique des stations

Station météo de Le Louroux

Altitude de la station : 103 m







Données météorologiques pour le 20/01/2022
Date
Heure
Températures Humidité Point de rosée Vitesse
du vent
Direction Rafales Windchill Pression Pluviométrie
Cumul
Date
Heure
Températures Humidité Point de rosée Vitesse
du vent
Direction Rafales Windchill Pression Pluviométrie
Cumul
20/01/2022 14:008.0 °C78 %4.4 °C5 km/hO14 km/h7.2 1033 hPa0.8 mm
20/01/2022 14:008.0 °C78 %4.4 °C5 km/hO18 km/h7.2 1033 hPa0.8 mm
20/01/2022 14:008.0 °C78 %4.4 °C5 km/hO18 km/h7.2 1033 hPa0.8 mm
20/01/2022 13:597.9 °C78 %4.4 °C3 km/hN18 km/h7.2 1033 hPa0.8 mm
20/01/2022 13:457.8 °C82 %5.0 °C5 km/hNNO18 km/h7.2 1033 hPa0.8 mm
20/01/2022 13:447.8 °C82 %5.0 °C-NNO18 km/h7.8 1033 hPa0.8 mm
20/01/2022 11:003.9 °C94 %3.3 °C-ONO13 km/h3.9 1033 hPa0.8 mm
20/01/2022 11:003.9 °C94 %3.3 °C-ONO13 km/h3.9 1033 hPa0.8 mm
20/01/2022 11:003.9 °C94 %3.3 °C-ONO13 km/h3.9 1033 hPa0.8 mm
20/01/2022 11:003.9 °C94 %3.3 °C-ONO13 km/h3.9 1033 hPa0.8 mm
20/01/2022 11:003.9 °C94 %3.3 °C-ONO13 km/h3.9 1033 hPa0.8 mm
20/01/2022 11:003.9 °C94 %3.3 °C-ONO13 km/h3.9 1033 hPa0.8 mm
20/01/2022 11:003.9 °C94 %3.3 °C-ONO13 km/h3.9 1033 hPa0.8 mm
20/01/2022 11:003.9 °C94 %3.3 °C-ONO13 km/h3.9 1033 hPa0.8 mm
20/01/2022 11:003.9 °C94 %3.3 °C-ONO13 km/h3.9 1033 hPa0.8 mm
20/01/2022 11:003.9 °C94 %3.3 °C-ONO13 km/h3.9 1033 hPa0.8 mm
20/01/2022 11:003.9 °C94 %3.3 °C-ONO13 km/h3.9 1033 hPa0.8 mm
20/01/2022 10:004.4 °C94 %3.9 °C3 km/hNO13 km/h3.3 1033 hPa0.8 mm
20/01/2022 10:004.4 °C94 %3.9 °C3 km/hNO13 km/h3.3 1033 hPa0.8 mm
20/01/2022 10:004.4 °C94 %3.9 °C3 km/hNO13 km/h3.3 1033 hPa0.8 mm
20/01/2022 10:004.4 °C94 %3.9 °C3 km/hNO13 km/h3.3 1033 hPa0.8 mm
20/01/2022 03:004.1 °C94 %3.3 °C8 km/hSSE11 km/h1.7 1030 hPa0.8 mm
20/01/2022 03:004.1 °C94 %3.3 °C8 km/hSSE11 km/h1.7 1030 hPa0.8 mm
20/01/2022 03:004.1 °C94 %3.3 °C8 km/hSSE11 km/h1.7 1030 hPa0.8 mm
20/01/2022 03:004.1 °C94 %3.3 °C8 km/hSSE11 km/h1.7 1030 hPa0.8 mm
20/01/2022 03:004.1 °C94 %3.3 °C8 km/hSSE11 km/h1.7 1030 hPa0.8 mm
20/01/2022 03:004.1 °C94 %3.3 °C8 km/hSSE11 km/h1.7 1030 hPa0.8 mm
20/01/2022 03:004.1 °C94 %3.3 °C8 km/hSSE11 km/h1.7 1030 hPa0.8 mm
20/01/2022 03:004.1 °C94 %3.3 °C8 km/hSSE11 km/h1.7 1030 hPa0.8 mm
20/01/2022 03:004.1 °C94 %3.3 °C8 km/hSSE11 km/h1.7 1030 hPa0.8 mm
20/01/2022 03:004.1 °C94 %3.3 °C8 km/hSSE11 km/h1.7 1030 hPa0.8 mm
20/01/2022 03:004.1 °C94 %3.3 °C8 km/hSSE11 km/h1.7 1030 hPa0.8 mm
20/01/2022 03:004.1 °C94 %3.3 °C8 km/hSSE11 km/h1.7 1030 hPa0.8 mm
20/01/2022 03:004.1 °C94 %3.3 °C8 km/hSSE11 km/h1.7 1030 hPa0.8 mm
20/01/2022 03:004.1 °C94 %3.3 °C8 km/hSSE11 km/h1.7 1030 hPa0.8 mm
20/01/2022 03:004.1 °C94 %3.3 °C8 km/hSSE11 km/h1.7 1030 hPa0.8 mm
20/01/2022 03:004.1 °C94 %3.3 °C8 km/hSSE11 km/h1.7 1030 hPa0.8 mm
20/01/2022 03:004.1 °C94 %3.3 °C8 km/hSSE11 km/h1.7 1030 hPa0.8 mm
20/01/2022 03:004.1 °C94 %3.3 °C8 km/hSSE11 km/h1.7 1030 hPa0.8 mm
20/01/2022 03:004.1 °C94 %3.3 °C8 km/hSSE11 km/h1.7 1030 hPa0.8 mm
20/01/2022 03:004.1 °C94 %3.3 °C8 km/hSSE11 km/h1.7 1030 hPa0.8 mm
20/01/2022 03:004.1 °C94 %3.3 °C8 km/hSSE11 km/h1.7 1030 hPa0.8 mm
20/01/2022 03:004.1 °C94 %3.3 °C8 km/hSSE11 km/h1.7 1030 hPa0.8 mm
20/01/2022 03:004.1 °C94 %3.3 °C8 km/hSSE11 km/h1.7 1030 hPa0.8 mm
20/01/2022 03:004.1 °C94 %3.3 °C8 km/hSSE11 km/h1.7 1030 hPa0.8 mm
20/01/2022 03:004.1 °C94 %3.3 °C8 km/hSSE11 km/h1.7 1030 hPa0.8 mm
20/01/2022 03:004.1 °C94 %3.3 °C8 km/hSSE11 km/h1.7 1030 hPa0.8 mm
20/01/2022 03:004.1 °C94 %3.3 °C8 km/hSSE11 km/h1.7 1030 hPa0.8 mm
20/01/2022 03:004.1 °C94 %3.3 °C8 km/hSSE11 km/h1.7 1030 hPa0.8 mm
20/01/2022 02:004.1 °C94 %3.3 °C8 km/hS10 km/h1.7 1030 hPa0.8 mm
20/01/2022 02:004.1 °C94 %3.3 °C8 km/hS11 km/h1.7 1030 hPa0.8 mm
20/01/2022 02:004.1 °C94 %3.3 °C8 km/hS11 km/h1.7 1030 hPa0.8 mm
20/01/2022 02:004.1 °C94 %3.3 °C8 km/hS11 km/h1.7 1030 hPa0.8 mm
20/01/2022 01:594.1 °C94 %3.3 °C5 km/hS11 km/h2.8 1030 hPa0.8 mm
20/01/2022 01:454.1 °C93 %3.3 °C5 km/hS11 km/h2.8 1030 hPa0.8 mm
20/01/2022 01:444.1 °C93 %3.3 °C5 km/hS11 km/h2.8 1030 hPa0.8 mm
20/01/2022 00:004.2 °C93 %3.3 °C3 km/hS11 km/h3.3 1030 hPa0.6 mm
20/01/2022 00:004.2 °C93 %3.3 °C3 km/hS11 km/h3.3 1030 hPa0.6 mm
20/01/2022 00:004.2 °C93 %3.3 °C3 km/hS11 km/h3.3 1030 hPa0.6 mm
20/01/2022 00:004.2 °C93 %3.3 °C3 km/hS11 km/h3.3 1030 hPa0.6 mm
20/01/2022 00:004.2 °C93 %3.3 °C3 km/hS11 km/h3.3 1030 hPa0.6 mm
20/01/2022 00:004.2 °C93 %3.3 °C3 km/hS11 km/h3.3 1030 hPa0.6 mm
20/01/2022 00:004.2 °C93 %3.3 °C3 km/hS11 km/h3.3 1030 hPa0.6 mm


Minima :

Température : 3.9 °C
Humidité : 78 %
Point de rosée : 3.3 °C
Vent moyen : 3 km/h
Windchill : 1.7
Pression atm. : 1030 hPa
Maxima :

Température : 8.0 °C
Humidité : 94 %
Point de rosée : 5.0 °C
Vent moyen : 8 km/h
Windchill : 7.8
Pression atm. : 1033 hPa
Rafales max : 18 km/h
Cumul de pluie sur 24H : 0.8 mm

Le Louroux est une commune du département Indre-et-Loire (37).
La station météorologique du réseau de l'association la plus proche de Le Louroux est celle de Tauxigny



Icône Facebook Association Météo Centre Icône Twitter Association Météo Centre Icône Chaîne Youtube Association Météo Centre Icône contact Association Météo Centre Icône Insta Association Météo Centre